[[{"header":{"parameterUnit":"m.s-1","parameterCategory":1,"la1":30.2991,"la2":30.254,"lo1":-89.0895,"lo2":-89.0444,"dy":0.0017,"dx":0.0017,"nx":28,"ny":28,"refTime":"2023-08-26T21:00:00:Z","depth":0,"parameterNumber":2,"parameterNumberName":"U-component_of_WINDS"},"data":[0,0,0,0,0,0,0,0,0,0,0,0,0,0,0,0,0,0,0,0,0,0,0,0,0,0,0,0,0,0,0,0,0,0,0,0,0,0,0,0,0,0,0,0,0,0,0,0,0,0,0,0,0,0,0,0,0,0,1.919,1.919,0,1.9247,1.9248,1.9249,1.9181,1.9178,1.9176,1.9173,1.9238,1.9242,1.9246,0,0,0,0,0,0,0,0,0,0,0,0,0,1.9026,1.903,1.9189,1.919,1.9191,1.9247,1.9248,1.9249,1.9181,1.9178,1.9175,1.9172,1.9237,1.9242,1.9247,0,0,0,0,0,0,0,0,0,0,0,0,0,1.9092,1.9031,1.9189,1.9164,1.9162,1.9247,1.9248,1.9249,1.9182,1.9178,1.9174,1.917,1.9235,1.9241,1.9247,1.9362,0,0,1.9266,1.9269,0,0,0,0,0,0,0,0,1.9089,1.9098,1.9167,1.9166,1.9164,1.9203,1.9214,1.9287,1.9183,1.9174,1.9173,1.9169,1.923,1.9236,1.9256,1.9365,1.9368,1.9267,1.927,1.9273,1.9275,0,0,0,0,0,0,0,1.9084,1.9095,1.9212,1.9168,1.9166,1.9151,1.9156,1.9228,1.9223,1.9175,1.917,1.9178,1.9228,1.925,1.9257,1.9369,1.9266,1.9272,1.9276,1.9278,1.9577,1.9581,0,0,0,0,0,0,1.9082,1.9092,1.9211,1.9214,1.9116,1.9157,1.9163,1.9194,1.9222,1.9223,1.9181,1.9174,1.9241,1.9249,1.9259,1.9396,1.9273,1.9279,1.9282,1.9573,1.9578,1.9583,0,0,0,0,0,0,1.9078,1.9093,1.9208,1.9152,1.9165,1.9164,1.92,1.9197,1.9219,1.9226,1.9226,1.9203,1.9238,1.925,1.9337,1.9398,1.9281,1.9287,1.9568,1.9575,1.9581,1.9672,0,0,0,0,0,0,1.9074,1.9092,1.9134,1.9153,1.9169,1.9284,1.9203,1.9201,1.9229,1.9221,1.9247,1.9248,1.9236,1.9328,1.9343,1.9404,1.9292,1.9563,1.9571,1.9579,1.9663,1.968,1.9695,0,0,0,0,0,1.9068,1.9158,1.9137,1.9151,1.9221,1.9287,1.9296,1.9279,1.9234,1.9277,1.9283,1.9247,1.9388,1.9337,1.9354,1.9418,1.9559,1.9569,1.9578,1.9656,1.9677,1.9695,0,0,0,0,0,0,1.9148,1.916,1.9136,1.9235,1.926,1.9276,1.933,1.9302,1.9342,1.9333,1.9312,1.9319,1.9412,1.9423,1.9366,1.9531,1.9466,1.948,1.952,1.954,1.9556,1.9552,1.9297,0,0,0,0,0,1.9177,1.9228,1.9236,1.9323,1.9336,1.9331,1.936,1.9344,1.9371,1.9382,1.9393,1.9422,1.9473,1.9507,1.9554,1.9664,1.9671,1.9716,1.9732,1.9745,1.9758,1.9819,1.984,1.9614,1.9614,1.9614,0,0,1.9237,1.925,1.9284,1.9339,1.9357,1.9413,1.9341,1.9402,1.9444,1.9392,1.9474,1.9484,1.9515,1.9614,1.9659,1.9627,1.9821,1.9757,1.9768,1.9773,1.9831,1.9853,1.9872,1.9621,1.962,1.9619,0,0,1.9376,1.939,1.9464,1.9483,1.9511,1.9507,1.9525,1.9545,1.9549,1.9631,1.9593,1.9644,1.9731,1.9755,1.9779,1.9928,1.9898,1.9944,2.0028,2.0088,2.0106,2.0122,2.0177,2.0197,1.9956,1.9956,1.9957,0,1.9448,1.9528,1.9506,1.957,1.9597,1.955,1.9626,1.9647,1.969,1.971,1.9673,1.9782,1.98,1.9905,1.9942,1.9962,1.9984,1.9942,2.0105,2.012,2.0135,2.0187,2.0208,1.9962,1.9961,1.9961,1.996,0,1.9617,1.9673,1.973,1.9771,1.9804,1.9874,1.9864,1.99,1.9882,1.9883,1.9969,1.9988,2.0039,2.0062,2.0046,2.0167,2.0146,2.0107,2.0042,2.0162,2.0211,2.0231,1.997,1.9968,1.9966,1.9965,0,0,1.9808,1.9835,1.9857,1.9876,1.9903,1.9948,2.0017,2.0065,2.0097,2.0128,2.0188,2.0263,2.0227,2.0255,2.0241,2.0293,2.0413,2.0248,2.0249,2.028,2.055,2.058,2.0604,2.0392,2.0396,2.0399,2.0548,0,1.9948,2.0066,2.0048,2.0162,2.0216,2.0173,2.0233,2.0258,2.0261,2.0308,2.0312,2.0366,2.0314,2.0331,2.0381,2.0388,2.0467,2.0376,2.045,2.0453,2.0445,2.0629,2.0661,2.0801,2.0567,2.057,2.0572,0,2.0128,2.0164,2.0284,2.0304,2.0326,2.038,2.0424,2.0469,2.0497,2.0496,2.0526,2.0503,2.0575,2.0507,2.0607,2.0546,2.0575,2.0584,2.0589,2.0596,2.0521,2.0644,2.0844,2.0866,2.0602,2.06,2.0598,0,2.0258,2.0337,2.0419,2.0436,2.0461,2.0501,2.0514,2.0538,2.0569,2.0608,2.0628,2.0675,2.0702,2.074,2.0732,2.0683,2.0835,2.0766,2.0838,2.0839,2.0873,2.0872,2.1084,2.0889,2.0889,2.0888,2.0888,0,2.0417,2.0493,2.0478,2.0528,2.0612,2.0592,2.0676,2.0684,2.0706,2.076,2.0725,2.0777,2.0761,2.0812,2.0806,2.0892,2.0903,2.0906,2.0904,2.091,2.0911,2.0931,2.0922,2.0894,2.0893,2.0892,2.0891,0,2.0577,2.057,2.0657,2.0673,2.068,2.0741,2.0756,2.0806,2.0805,2.0873,2.0888,2.0889,2.0948,2.0943,2.1009,2.1005,2.1111,2.1097,2.1101,2.1099,2.1172,2.1166,2.1406,2.1438,2.1221,2.1223,2.1224,0,2.0681,2.0737,2.076,2.0792,2.0808,2.086,2.0891,2.0874,2.0908,2.0945,2.0991,2.1046,2.1089,2.1186,2.1194,2.1245,2.1233,2.1313,2.1241,2.1246,2.1237,2.1235,2.1241,2.1328,2.1331,2.1333,2.1334,0,2.0866,2.0859,2.0904,2.0948,2.0986,2.102,2.1051,2.108,2.1067,2.1107,2.1166,2.12,2.1267,2.1323,2.1372,2.1388,2.1361,2.1357,2.1377,2.1385,2.1387,2.1389,2.1143,2.1352,2.135,2.1349,2.1348,2.1347,2.1002,2.1051,2.1075,2.1127,2.1148,2.1178,2.1225,2.1231,2.1279,2.1331,2.1318,2.1386,2.1415,2.1477,2.1498,2.1552,2.1523,2.1551,2.1559,2.1566,2.1576,2.1376,2.156,2.156,2.1559,2.1559,2.1558,0,2.1187,2.12,2.1248,2.1292,2.1333,2.1301,2.1334,2.1372,2.1431,2.1459,2.1502,2.1571,2.1626,2.1638,2.1691,2.1732,2.1721,2.1747,2.1745,2.175,2.1597,2.1576,2.1755,2.1755,2.1755,2.1755,2.1755,2.1755,2.1288,2.137,2.1367,2.146,2.1473,2.1537,2.156,2.1588,2.1611,2.1688,2.1733,2.174,2.1763,2.1817,2.1867,2.187,2.1892,2.1924,2.1922,2.178,2.176,2.1741,2.1721,2.1928,2.1928,2.207,2.2071,2.2072]},{"header":{"parameterUnit":"m.s-1","parameterCategory":1,"la1":30.2991,"la2":30.254,"lo1":-89.0895,"lo2":-89.0444,"dy":0.0017,"dx":0.0017,"nx":28,"ny":28,"refTime":"2023-08-26T21:00:00:Z","depth":0,"parameterNumber":3,"parameterNumberName":"V-component_of_WINDS"},"data":[0,0,0,0,0,0,0,0,0,0,0,0,0,0,0,0,0,0,0,0,0,0,0,0,0,0,0,0,0,0,0,0,0,0,0,0,0,0,0,0,0,0,0,0,0,0,0,0,0,0,0,0,0,0,0,0,0,0,1.8453,1.8453,0,1.8481,1.8482,1.8482,1.8461,1.846,1.8459,1.8459,1.8485,1.8486,1.8488,0,0,0,0,0,0,0,0,0,0,0,0,0,1.8377,1.8379,1.8452,1.8453,1.8453,1.8481,1.8482,1.8482,1.8461,1.846,1.8459,1.8458,1.8484,1.8486,1.8488,0,0,0,0,0,0,0,0,0,0,0,0,0,1.8408,1.8379,1.8452,1.8446,1.8446,1.8481,1.8482,1.8482,1.8462,1.846,1.8459,1.8458,1.8484,1.8486,1.8488,1.853,0,0,1.8495,1.8496,0,0,0,0,0,0,0,0,1.8407,1.8411,1.8447,1.8447,1.8447,1.8466,1.8465,1.8498,1.8462,1.8456,1.8459,1.8457,1.848,1.8482,1.849,1.8531,1.8532,1.8496,1.8497,1.8498,1.8499,0,0,0,0,0,0,0,1.8404,1.841,1.8464,1.8447,1.8447,1.8441,1.8444,1.8471,1.8475,1.8456,1.8455,1.8459,1.8479,1.8488,1.8491,1.8533,1.8495,1.8498,1.8499,1.85,1.8609,1.8611,0,0,0,0,0,0,1.8403,1.8408,1.8463,1.8465,1.8423,1.8444,1.8447,1.8461,1.8474,1.8475,1.846,1.8457,1.8485,1.8488,1.8492,1.8541,1.8498,1.85,1.8501,1.8608,1.8609,1.8611,0,0,0,0,0,0,1.8402,1.8408,1.8462,1.8436,1.8442,1.8447,1.8463,1.8463,1.8472,1.8477,1.8477,1.8468,1.8484,1.8488,1.8521,1.8542,1.8501,1.8503,1.8606,1.8608,1.861,1.8641,0,0,0,0,0,0,1.84,1.8408,1.8424,1.8437,1.8444,1.8491,1.8464,1.8464,1.8476,1.8473,1.8485,1.8486,1.8483,1.8518,1.8523,1.8545,1.8505,1.8604,1.8607,1.861,1.8638,1.8644,1.8649,0,0,0,0,0,1.8397,1.8431,1.8425,1.8432,1.8465,1.8492,1.8496,1.8493,1.8478,1.8494,1.8498,1.8486,1.8539,1.8521,1.8527,1.855,1.8603,1.8606,1.8609,1.8636,1.8643,1.8649,0,0,0,0,0,0,1.8419,1.8432,1.8426,1.8465,1.8478,1.8489,1.8509,1.8501,1.8518,1.8514,1.8509,1.8512,1.8546,1.8551,1.8531,1.8591,1.8568,1.8573,1.8586,1.8593,1.8599,1.8596,1.8507,0,0,0,0,0,1.8429,1.8452,1.8461,1.8495,1.8502,1.8505,1.8516,1.8513,1.8526,1.8531,1.8537,1.8549,1.8568,1.8581,1.8599,1.8639,1.8641,1.8658,1.8663,1.8668,1.8672,1.8693,1.8701,1.8622,1.8622,1.8622,0,0,1.8449,1.8459,1.8473,1.85,1.8509,1.8532,1.8509,1.8534,1.855,1.8534,1.8565,1.857,1.8583,1.862,1.8636,1.8625,1.8694,1.8672,1.8676,1.8677,1.8698,1.8705,1.8712,1.8625,1.8624,1.8624,0,0,1.8497,1.8507,1.8536,1.8547,1.8562,1.8564,1.8571,1.8583,1.8586,1.8618,1.8606,1.8626,1.8659,1.8669,1.8678,1.8732,1.8721,1.8738,1.8766,1.8787,1.8794,1.8799,1.8818,1.8825,1.8742,1.8742,1.8742,0,1.8519,1.8554,1.8552,1.8578,1.859,1.8578,1.8607,1.8617,1.8637,1.8645,1.8633,1.8676,1.8683,1.8722,1.8735,1.8743,1.8751,1.8736,1.8793,1.8798,1.8803,1.8821,1.8828,1.8744,1.8743,1.8743,1.8743,0,1.858,1.8605,1.8626,1.8648,1.8662,1.869,1.8691,1.8706,1.8702,1.8705,1.8737,1.8747,1.8767,1.8776,1.8771,1.8814,1.8807,1.8794,1.8771,1.8813,1.883,1.8836,1.8746,1.8746,1.8745,1.8745,0,0,1.8642,1.8663,1.8671,1.8681,1.8697,1.8716,1.8743,1.8764,1.8776,1.8791,1.8813,1.8843,1.8831,1.8842,1.8839,1.8857,1.8899,1.8842,1.8842,1.8852,1.8947,1.8956,1.8964,1.8892,1.8894,1.8895,1.8946,0,1.869,1.8739,1.8738,1.8782,1.8805,1.8795,1.8818,1.883,1.8834,1.8853,1.8857,1.8878,1.8861,1.8868,1.8886,1.889,1.8918,1.8886,1.8912,1.8913,1.8909,1.8973,1.8982,1.903,1.8952,1.8953,1.8954,0,1.8753,1.8771,1.8818,1.8833,1.8842,1.8863,1.8883,1.8901,1.8915,1.8917,1.893,1.8924,1.8951,1.8928,1.8965,1.8943,1.8954,1.8958,1.896,1.8961,1.8936,1.8976,1.9045,1.9052,1.8964,1.8963,1.8963,0,1.8793,1.8829,1.8862,1.8871,1.8888,1.8904,1.8911,1.8924,1.8937,1.8954,1.8962,1.8982,1.8992,1.9007,1.9006,1.899,1.9044,1.9021,1.9045,1.9045,1.9056,1.9055,1.9128,1.9064,1.9064,1.9064,1.9064,0,1.8847,1.8876,1.888,1.8901,1.8933,1.8932,1.8964,1.897,1.8982,1.9003,1.8995,1.9014,1.9012,1.9032,1.9031,1.9062,1.9067,1.9068,1.9068,1.9069,1.9069,1.9075,1.9072,1.9066,1.9065,1.9065,1.9065,0,1.8896,1.89,1.8936,1.895,1.8955,1.8978,1.899,1.9009,1.9013,1.9039,1.9045,1.905,1.9073,1.9074,1.91,1.91,1.9137,1.9133,1.9133,1.9132,1.9156,1.9154,1.9234,1.9245,1.9175,1.9176,1.9176,0,1.893,1.8952,1.897,1.8984,1.8993,1.9016,1.9029,1.903,1.9044,1.9062,1.9079,1.9101,1.9119,1.9156,1.9161,1.9181,1.9177,1.9204,1.918,1.9181,1.9177,1.9176,1.9178,1.9209,1.9209,1.921,1.9211,0,1.8989,1.8991,1.9011,1.9033,1.905,1.9067,1.9083,1.9095,1.9097,1.9113,1.9137,1.9151,1.9178,1.92,1.922,1.9227,1.9219,1.9219,1.9225,1.9226,1.9225,1.9226,1.9145,1.9216,1.9216,1.9215,1.9215,1.9215,1.9032,1.9051,1.9067,1.9091,1.9103,1.9118,1.9137,1.9144,1.9164,1.9188,1.9186,1.9213,1.9226,1.9252,1.9261,1.9281,1.9272,1.9282,1.9284,1.9286,1.9289,1.9223,1.9285,1.9285,1.9285,1.9284,1.9284,0,1.9091,1.9101,1.9123,1.9146,1.9164,1.9157,1.9174,1.919,1.9214,1.9228,1.9246,1.9274,1.9296,1.9304,1.9325,1.9339,1.9336,1.9345,1.9343,1.9345,1.9296,1.9288,1.9347,1.9347,1.9347,1.9347,1.9347,1.9347,1.9123,1.9157,1.916,1.92,1.9209,1.9236,1.9247,1.9261,1.9272,1.9304,1.9323,1.9328,1.934,1.9362,1.9382,1.9383,1.9391,1.9401,1.9401,1.9355,1.9349,1.9343,1.9335,1.9403,1.9403,1.9449,1.9449,1.945]}]]